Regional Weather Roundup
Issued by NWS Green Bay, WI

Home | Current Version | Previous Version | Text Only | Print | Product List | Glossary On
Versions: 1 2 3 4 5 6 7 8 9 10 11 12 13 14 15 16 17 18 19 20 21 22 23 24 25 26 27 28 29 30 31 32 33 34 35 36 37 38 39 40 41 42 43 44 45 46 47 48 49 50
000
ASUS43 KGRB 290011
RWRGRB

NORTH-CENTRAL AND NORTHEAST WISCONSIN REGIONAL WEATHER ROUNDUP
NATIONAL WEATHER SERVICE GREEN BAY WI
700 PM CDT THU JUL 28 2016

WIZ005-009-010>012-018-019-290100-
NORTH CENTRAL WISCONSIN

CITY           SKY/WX    TMP DP  RH WIND       PRES   REMARKS
IRONWOOD       CLOUDY    66  50  55 NE9       30.06S
MANITOWISH WTR CLOUDY    67  56  68 N7        30.07R
ARBOR VITAE    MOSUNNY   69  56  62 NE7       30.06S
EAGLE RIVER    PTSUNNY   65  51  58 NE12G17   30.06S
LAND O LAKES   MOSUNNY   66  50  56 NE7       30.09R
RHINELANDER    CLOUDY    70  55  59 NE6       30.05R
PHILLIPS       MOSUNNY   71  58  63 NE12G18   30.04S
ANTIGO         CLOUDY    67  62  83 NE6       30.03S
TOMAHAWK       CLOUDY    69  58  67 CALM      30.04R
MERRILL        CLOUDY    69  64  86 CALM      30.03R
$$

WIZ013-073-290100-
NORTHEAST WISCONSIN

CITY           SKY/WX    TMP DP  RH WIND       PRES   REMARKS
IRON MOUNTAIN  SUNNY     68  51  54 NE9       30.04R
MARINETTE        N/A    N/A N/A N/A NE9       30.01
OCONTO         CLOUDY    68  68 100 CALM      29.99R
$$

WIZ017-030-035>037-045-290100-
CENTRAL WISCONSIN

CITY           SKY/WX    TMP DP  RH WIND       PRES   REMARKS
MEDFORD        CLOUDY    65  65 100 CALM      30.03R
WAUSAU         CLOUDY    67  63  87 CALM      30.00S
MOSINEE        CLOUDY    66  63  88 NE7       30.02S
MARSHFIELD     LGT RAIN  64  60  87 E5        30.00S
WISC RAPIDS    CLOUDY    68  58  70 NE8       29.99F
STEVENS POINT  CLOUDY    63  60  92 NE3       30.01S
WAUPACA        CLOUDY    69  60  73 NE3       29.99S
SHAWANO        CLOUDY    70  63  77 NE3       30.00S
CLINTONVILLE   CLOUDY    68  59  73 E7        30.00R
WAUTOMA        CLOUDY    69  63  81 NE8       29.98S
$$

WIZ038-039-048-051-290100-
FOX VALLEY

CITY           SKY/WX    TMP DP  RH WIND       PRES   REMARKS
NWS GREEN BAY  CLOUDY    68  64  87 NE7       29.99R
APPLETON       CLOUDY    70  55  60 NE9       29.97S
OSHKOSH        CLOUDY    69  62  78 NE12      29.97R
FOND DU LAC    CLOUDY    72  63  73 NE10      29.97R
$$

WIZ022-050-052-290100-
EAST CENTRAL WISCONSIN

CITY           SKY/WX    TMP DP  RH WIND       PRES   REMARKS
EPHRAIM        CLOUDY    69  62  77 NE5       29.99S
WASHINGTON ISL NOT AVBL
STURGEON BAY   CLOUDY    69  61  75 NE5       30.00S
MANITOWOC      LGT RAIN  67  57  70 MISG      29.97S
SHEBOYGAN      CLOUDY    68  58  70 N14       29.96S
$$

LMZ563-521-522-541>543-290100-
LAKESHORE

STATION/POSITION TIME  TEMP    WIND        PRES    VSBY  WAVE
                       AIR SEA DIR/SP/G                  HT/PER
                 (UTC) (F)     (DEG/KT/KT) (MB)    (MI)  (FT/S)
SHEBOYGAN LKSHOR 0000   62     360/ 17/ 19 1014.6R
KEWAUNEE LKSHORE 2300           10/  4/  7   N/A
ALGOMA MARINA    2313           40/ 10/ 13   N/A
NORTHPORT PIER   2300   72      40/  5/  6 1015.6R
N MID LAKE BUOY  2250   71 71   30/  8/ 10 1014.6          0
SISTER BAY LKSHO 2321   73      20/  6/  7   N/A
CHAMBERS ISLAND  2300   72      20/  9/ 11 1015.6R
MENOMINEE LKSHOR 2306           10/  8/  9   N/A
$$




USA.gov is the U.S. government's official web portal to all federal, state and local government web resources and services.